This demonstration page uses our WeatherBlox Daily Observations layout. Learn more.

Left ArrowRight Arrow

Hourly Observations for September 28, 2020

Temp ( °F °C ) Dew Point ( °F °C ) Humidity (%) Winds ( mph kmh ) Pressure ( in mb ) Visibility ( mi km ) Precip ( " mm )
12:59 am 00:59 Mostly Cloudy 69 20.6 65 18.3 87 87 SSW 5 7 29.96 1015 10 16 0.00 0.00
1:59 am 01:59 Mostly Cloudy 68 20 64 17.8 87 87 S 5 7 29.95 1014 10 16 0.00 0.00
2:59 am 02:59 Cloudy 67 19.4 64 17.8 91 91 S 5 7 29.94 1014 10 16 0.00 0.00
3:59 am 03:59 Cloudy 68 20 64 17.8 87 87 SSW 7 11 29.94 1014 10 16 0.00 0.00
4:59 am 04:59 Cloudy with Light Rain 68 20 64 17.8 87 87 SW 6 9 29.93 1014 10 16 0.00 0.00
5:59 am 05:59 Cloudy 68 20 64 17.8 87 87 SW 7 11 29.94 1014 10 16 0.00 0.00
6:59 am 06:59 Cloudy 67 19.4 64 17.8 91 91 Calm 29.95 1014 9 14 0.00 0.00
7:59 am 07:59 Mostly Sunny 68 20 65 18.3 90 90 S 3 6 29.96 1015 8 13 0.00 0.00
8:59 am 08:59 Mostly Sunny 71 21.7 65 18.3 81 81 WSW 5 7 29.96 1015 10 16 0.00 0.00
9:59 am 09:59 Mostly Sunny 75 23.9 65 18.3 71 71 W 6 9 29.98 1015 10 16 0.00 0.00
10:59 am 10:59 Mostly Sunny 78 25.6 66 18.9 67 67 VRB 3 6 29.98 1015 10 16 0.00 0.00
11:59 am 11:59 Mostly Sunny 79 26.1 65 18.3 62 62 VRB 3 6 29.97 1015 10 16 0.00 0.00
12:59 pm 12:59 Mostly Sunny 81 27.2 65 18.3 58 58 SSW 5 7 29.96 1015 10 16 0.00 0.00
1:59 pm 13:59 Mostly Sunny 82 27.8 65 18.3 56 56 ENE 8 13 29.93 1014 10 16 0.00 0.00
2:59 pm 14:59 Partly Cloudy 83 28.3 64 17.8 53 53 S 7 11 29.93 1013 10 16 0.00 0.00
3:59 pm 15:59 Mostly Cloudy 83 28.3 64 17.8 53 53 SSE 8 13 29.92 1013 10 16 0.00 0.00
4:59 pm 16:59 Mostly Cloudy 80 26.7 66 18.9 62 62 S 10 17 29.92 1013 10 16 0.00 0.00
5:59 pm 17:59 Mostly Cloudy 79 26.1 65 18.3 62 62 S 8 13 29.92 1013 10 16 0.00 0.00
6:59 pm 18:59 Mostly Cloudy 75 23.9 65 18.3 71 71 SSE 6 9 29.92 1013 10 16 0.00 0.00
7:59 pm 19:59 Mostly Cloudy 74 23.3 67 19.4 79 79 SSE 7 11 29.92 1013 10 16 0.00 0.00
8:59 pm 20:59 Mostly Cloudy 73 22.8 67 19.4 81 81 SSE 8 13 29.92 1013 10 16 0.00 0.00
9:59 pm 21:59 Mostly Cloudy 74 23.3 67 19.4 79 79 S 8 13 29.92 1013 10 16 0.00 0.00
10:59 pm 22:59 Mostly Cloudy 73 22.8 67 19.4 81 81 S 6 9 29.93 1014 10 16 0.00 0.00
11:59 pm 23:59 Mostly Cloudy 73 22.8 67 19.4 81 81 S 6 9 29.93 1013 10 16 0.00 0.00

Powered by AerisWeather